SCP
0 0 0 0 0 0 0 0 0 0 0 0 0 0 0 0 0 0 0 0 0 0
0 0 0 0 0 0 0 0 0 0 0 0 0 0 0 0 0 0 0 0 0 0
0 0 0 0 0 0 0 0 0 0 0 0 0 0 0 0 0 0 0 0 0 0
0 0 0 0 0 0 0 0 0 0 0 0 0 0 0 0 0 0 0 0 0 0
0 0 0 0 0 0 0 0 0 0 0 0 0 0 0 0 0 0 0 0 0 0
0 0 0 0 0 0 0 0 0 0 0 0 0 0 0 0 0 0 0 0 0 0
0 0 0 0 0 0 0 0 0 0 0 0 0 0 0 0 0 -0 0 0 -0 -0
0 0 0 0 0 0 0 0 0 0 0 0 0 0 0 -0 0 -0 0 0 0 -0
0 0 0 0 0 0 0 0 0 0 0 -0 0 -0 0 0 0 0 0 0 0 -0
0 0 0 0 0 0 0 0 0 0 0 0 -0 0 0 0 0 0 0 0 -0 0
0 0 0 0 0 0 0 0 0 0 0 0 0 0 -0 -0 0 -0 -0 -0 -0 0
0 0 0 0 0 0 0 0 0 0 0 0 0 -0 -0 0 0 -0 -0 -0 -0 -0
0 0 0 0 0 0 0 0 0 0 0 0 0 -0 -0 -0 0 0 0 0 0 -0
0 0 0 0 0 0 0 0 0 0 0 0 0 0 -0 -0 0 0 0 0 0 0
Wind_Speed_500mb
55 61 62 64 59 59 56 51 44 40 36 39 42 44 45 50 53 53 56 58 61 66
58 60 61 58 55 53 48 46 43 41 40 42 42 44 48 51 53 55 57 61 62 63
58 57 53 49 50 49 48 44 43 43 44 42 44 45 48 50 53 55 57 60 63 68
56 54 48 44 46 45 42 45 43 43 47 45 44 45 49 52 53 53 56 63 66 71
52 49 44 42 39 36 40 40 39 41 44 43 44 42 44 49 50 54 56 56 60 70
47 43 40 38 36 33 36 35 35 38 41 43 45 47 44 46 48 50 50 54 63 66
43 40 36 34 35 35 32 35 36 37 40 41 43 48 45 45 46 47 48 48 51 54
38 35 33 29 29 28 28 30 32 33 34 35 37 36 42 42 40 41 39 38 44 48
30 29 28 27 25 26 27 29 28 26 29 30 28 28 34 32 33 32 29 32 35 37
26 22 24 28 26 25 26 28 28 26 25 29 27 28 26 23 23 25 26 28 29 22
20 22 22 25 26 25 24 27 28 27 25 25 27 26 23 20 16 15 14 15 14 13
22 22 21 22 24 25 24 22 24 24 27 30 30 27 26 21 21 23 27 35 33 19
24 21 19 17 16 20 22 23 22 22 27 30 33 33 31 32 36 41 46 52 52 46
22 21 16 16 13 13 13 16 18 24 26 27 28 30 30 33 35 40 42 47 52 53
Wind_Direction_500mb
309 310 307 305 301 302 304 304 304 302 301 299 291 286 278 273 271 274 264 261 258 257
316 313 307 302 302 304 304 305 306 304 300 296 292 288 285 279 272 268 268 261 260 262
317 313 309 307 307 305 304 304 303 304 299 298 294 293 290 286 282 276 270 268 264 266
320 318 313 307 306 303 307 305 307 304 299 295 294 293 291 286 284 277 274 271 267 266
321 317 315 309 308 311 307 305 306 304 304 303 298 293 290 288 281 281 277 273 272 269
324 324 317 312 312 308 308 307 307 303 299 301 300 301 300 297 289 281 281 278 277 271
333 330 325 322 320 315 313 311 307 304 302 300 298 296 301 297 296 292 285 283 279 273
337 337 336 332 328 328 327 323 321 321 317 312 305 307 305 303 308 303 294 288 285 274
343 344 347 342 340 339 341 342 342 344 340 335 332 325 315 310 305 308 305 301 296 274
349 346 357 355 355 353 351 352 359 358 354 356 358 350 344 342 324 311 305 298 299 289
358 356 5 8 3 7 5 7 10 9 8 18 18 8 4 359 356 351 356 352 327 304
309 323 352 12 10 8 15 20 18 19 23 32 38 30 32 35 43 49 55 57 47 35
297 310 307 321 355 13 17 20 19 25 33 38 46 52 50 56 64 62 57 55 52 47
290 293 306 316 323 323 336 14 29 35 39 41 42 46 48 50 48 46 49 52 49 46
Wind_Speed_850mb
55 61 62 64 59 59 56 51 44 40 36 39 42 44 45 50 53 53 56 58 61 66
58 60 61 58 55 53 48 46 43 41 40 42 42 44 48 51 53 55 57 61 62 63
58 57 53 49 50 49 48 44 43 43 44 42 44 45 48 50 53 55 57 60 63 68
56 54 48 44 46 45 42 45 43 43 47 45 44 45 49 52 53 53 56 63 66 71
52 49 44 42 39 36 40 40 39 41 44 43 44 42 44 49 50 54 56 56 60 70
47 43 40 38 36 33 36 35 35 38 41 43 45 47 44 46 48 50 50 54 63 66
43 40 36 34 35 35 32 35 36 37 40 41 43 48 45 45 46 47 48 48 51 54
38 35 33 29 29 28 28 30 32 33 34 35 37 36 42 42 40 41 39 38 44 48
30 29 28 27 25 26 27 29 28 26 29 30 28 28 34 32 33 32 29 32 35 37
26 22 24 28 26 25 26 28 28 26 25 29 27 28 26 23 23 25 26 28 29 22
20 22 22 25 26 25 24 27 28 27 25 25 27 26 23 20 16 15 14 15 14 13
22 22 21 22 24 25 24 22 24 24 27 30 30 27 26 21 21 23 27 35 33 19
24 21 19 17 16 20 22 23 22 22 27 30 33 33 31 32 36 41 46 52 52 46
22 21 16 16 13 13 13 16 18 24 26 27 28 30 30 33 35 40 42 47 52 53
Wind_Direction_850mb
309 310 307 305 301 302 304 304 304 302 301 299 291 286 278 273 271 274 264 261 258 257
316 313 307 302 302 304 304 305 306 304 300 296 292 288 285 279 272 268 268 261 260 262
317 313 309 307 307 305 304 304 303 304 299 298 294 293 290 286 282 276 270 268 264 266
320 318 313 307 306 303 307 305 307 304 299 295 294 293 291 286 284 277 274 271 267 266
321 317 315 309 308 311 307 305 306 304 304 303 298 293 290 288 281 281 277 273 272 269
324 324 317 312 312 308 308 307 307 303 299 301 300 301 300 297 289 281 281 278 277 271
333 330 325 322 320 315 313 311 307 304 302 300 298 296 301 297 296 292 285 283 279 273
337 337 336 332 328 328 327 323 321 321 317 312 305 307 305 303 308 303 294 288 285 274
343 344 347 342 340 339 341 342 342 344 340 335 332 325 315 310 305 308 305 301 296 274
349 346 357 355 355 353 351 352 359 358 354 356 358 350 344 342 324 311 305 298 299 289
358 356 5 8 3 7 5 7 10 9 8 18 18 8 4 359 356 351 356 352 327 304
309 323 352 12 10 8 15 20 18 19 23 32 38 30 32 35 43 49 55 57 47 35
297 310 307 321 355 13 17 20 19 25 33 38 46 52 50 56 64 62 57 55 52 47
290 293 306 316 323 323 336 14 29 35 39 41 42 46 48 50 48 46 49 52 49 46